GW0655 Weather Reports


time (UTC)temp
F
wind
direction
speed
knots
gust
knots
rain 1hr
in
rain 24hr
in
rain mn
in
humidity
%
barometer
mb
20260508205413 80 184 0.9 0.9 0.00 0.00 0.00 72 1011.3
20260508204909 81 183 2.6 2.6 0.00 0.00 0.00 71 1011.3
20260508204407 81 341 0.0 0.9 0.00 0.00 0.00 71 1011.3
20260508203902 82 76 0.9 1.7 0.00 0.00 0.00 69 1011.0
20260508203358 82 209 2.6 4.3 0.00 0.00 0.00 68 1011.3
20260508202854 81 216 1.7 2.6 0.00 0.00 0.00 69 1011.7
20260508202351 81 165 0.9 1.7 0.00 0.00 0.00 70 1011.3
20260508201849 80 118 2.6 2.6 0.00 0.00 0.00 71 1011.3
20260508201345 81 86 0.0 0.0 0.00 0.00 0.00 70 1011.7
20260508200842 80 241 1.7 1.7 0.00 0.00 0.00 69 1012.0
20260508200339 80 261 0.0 0.9 0.00 0.00 0.00 70 1011.7
20260508195834 80 126 2.6 2.6 0.00 0.00 0.00 70 1012.0
20260508195331 80 316 0.0 0.0 0.00 0.00 0.00 70 1012.0
20260508194827 79 214 0.9 1.7 0.00 0.00 0.00 71 1011.7
20260508194325 80 203 2.6 4.3 0.00 0.00 0.00 69 1012.0
20260508193822 80 178 1.7 1.7 0.00 0.00 0.00 69 1012.4
20260508193319 79 247 1.7 2.6 0.00 0.00 0.00 70 1012.4
20260508192815 79 352 0.9 1.7 0.00 0.00 0.00 71 1012.4
20260508192312 80 131 2.6 4.3 0.00 0.00 0.00 70 1012.4
20260508191809 79 229 0.9 1.7 0.00 0.00 0.00 71 1012.0
20260508191306 79 223 2.6 2.6 0.00 0.00 0.00 70 1012.4
20260508190804 79 146 5.2 7.0 0.00 0.00 0.00 70 1012.4
20260508190259 81 102 2.6 4.3 0.00 0.00 0.00 67 1012.7
20260508185756 80 160 0.0 0.0 0.00 0.00 0.00 69 1012.4
20260508185254 79 201 0.9 1.7 0.00 0.00 0.00 69 1012.4
20260508184750 79 297 1.7 1.7 0.00 0.00 0.00 71 1012.4
20260508184248 78 41 0.0 0.9 0.00 0.00 0.00 72 1012.4
20260508183745 78 250 0.9 0.9 0.00 0.00 0.00 71 1012.7
20260508183241 79 231 2.6 2.6 0.00 0.00 0.00 70 1012.7
20260508182737 78 187 0.9 1.7 0.00 0.00 0.00 72 1013.1
20260508182234 77 203 2.6 2.6 0.00 0.00 0.00 71 1013.5
20260508181729 77 162 2.6 2.6 0.00 0.00 0.00 72 1013.1
20260508181227 78 166 1.7 1.7 0.00 0.00 0.00 71 1013.5
20260508180723 78 201 2.6 2.6 0.00 0.00 0.00 69 1013.5
20260508180220 78 183 1.7 1.7 0.00 0.00 0.00 70 1013.5
20260508175717 78 236 0.9 0.9 0.00 0.00 0.00 69 1013.5
20260508175213 77 202 0.0 0.9 0.00 0.00 0.00 70 1013.5
20260508174712 76 18 0.9 0.9 0.00 0.00 0.00 72 1013.5
20260508174208 77 65 0.0 0.0 0.00 0.00 0.00 72 1013.5
20260508173704 77 61 1.7 1.7 0.00 0.00 0.00 71 1013.5
20260508173200 77 316 0.0 0.9 0.00 0.00 0.00 70 1013.8
20260508172658 77 176 1.7 1.7 0.00 0.00 0.00 71 1013.8
20260508172155 77 271 0.9 0.9 0.00 0.00 0.00 70 1013.8
20260508171651 77 272 0.9 0.9 0.00 0.00 0.00 69 1013.8
20260508171147 76 243 1.7 1.7 0.00 0.00 0.00 70 1013.5
20260508170644 76 212 1.7 1.7 0.00 0.00 0.00 72 1013.8
20260508170142 77 322 0.0 0.0 0.00 0.00 0.00 71 1013.5
20260508165639 76 33 0.0 0.0 0.00 0.00 0.00 70 1013.8
20260508165136 77 321 0.9 0.9 0.00 0.00 0.00 70 1014.1
20260508164632 76 348 2.6 2.6 0.00 0.00 0.00 70 1014.1
20260508164129 76 129 0.0 0.0 0.00 0.00 0.00 70 1013.8
20260508163627 76 49 0.0 0.0 0.00 0.00 0.00 71 1013.8
20260508163124 75 351 0.9 1.7 0.00 0.00 0.00 70 1014.1
20260508162620 74 254 0.9 0.9 0.00 0.00 0.00 71 1014.5
20260508162118 75 184 0.0 0.9 0.00 0.00 0.00 71 1014.5
20260508161614 73 256 0.0 0.9 0.00 0.00 0.00 73 1014.5
20260508161112 72 239 0.9 0.9 0.00 0.00 0.00 75 1014.5
20260508160610 72 233 0.9 0.9 0.00 0.00 0.00 73 1014.8
20260508160107 72 244 0.9 0.9 0.00 0.00 0.00 73 1014.5
20260508155604 72 189 0.9 1.7 0.00 0.00 0.00 73 1014.5
20260508155101 73 163 1.7 1.7 0.00 0.00 0.00 72 1014.5
20260508154558 73 173 0.0 0.0 0.00 0.00 0.00 73 1014.8
20260508154055 72 246 0.0 0.0 0.00 0.00 0.00 72 1014.8
20260508153552 72 162 1.7 1.7 0.00 0.00 0.00 72 1015.2
20260508153048 74 183 0.9 1.7 0.00 0.00 0.00 69 1014.8
20260508152545 73 284 0.9 0.9 0.00 0.00 0.00 71 1014.8
20260508152040 71 265 0.0 0.0 0.00 0.00 0.00 74 1014.8
20260508151537 69 270 0.9 0.9 0.00 0.00 0.00 76 1014.8
20260508151034 69 38 0.0 0.0 0.00 0.00 0.00 76 1015.2
20260508150531 69 99 0.9 0.9 0.00 0.00 0.00 75 1015.2
20260508150027 69 223 0.9 0.9 0.00 0.00 0.00 75 1015.2
20260508145524 69 237 0.9 1.7 0.00 0.00 0.00 74 1015.2
20260508145020 69 214 0.9 1.7 0.00 0.00 0.00 74 1015.2
20260508144518 69 260 0.0 0.0 0.00 0.00 0.00 75 1015.2
20260508144015 69 40 0.0 0.0 0.00 0.00 0.00 74 1015.2
20260508143513 68 33 0.0 0.0 0.00 0.00 0.00 76 1014.8
20260508143009 66 166 0.9 1.7 0.00 0.00 0.00 78 1014.8
20260508142506 66 32 0.0 0.0 0.00 0.00 0.00 79 1015.2
20260508142003 65 245 0.0 0.0 0.00 0.00 0.00 81 1015.2
20260508141459 64 185 0.9 1.7 0.00 0.00 0.00 81 1015.2
20260508140957 64 128 1.7 1.7 0.00 0.00 0.00 81 1015.2
20260508140454 64 170 1.7 2.6 0.00 0.00 0.00 81 1015.2
20260508135949 64 157 0.9 1.7 0.00 0.00 0.00 82 1015.5
20260508135446 64 250 0.0 0.0 0.00 0.00 0.00 81 1015.5
20260508134943 64 68 0.0 0.0 0.00 0.00 0.00 81 1015.2
20260508134439 64 188 0.0 0.9 0.00 0.00 0.00 82 1015.5
20260508133936 64 54 0.0 0.0 0.00 0.00 0.00 81 1015.8
20260508133434 64 280 0.0 0.0 0.00 0.00 0.00 81 1015.8
20260508132930 64 10 0.9 1.7 0.00 0.00 0.00 81 1015.8
20260508132428 64 333 0.9 0.9 0.00 0.00 0.00 81 1015.8
20260508131925 63 318 0.9 0.9 0.00 0.00 0.00 81 1015.5
20260508131420 63 351 2.6 2.6 0.00 0.00 0.00 81 1015.5
20260508130917 63 41 0.9 0.9 0.00 0.00 0.00 81 1015.5
20260508130414 63 313 0.0 0.0 0.00 0.00 0.00 81 1015.5
20260508125910 63 346 1.7 1.7 0.00 0.00 0.00 81 1015.5
20260508125406 63 3 1.7 1.7 0.00 0.00 0.00 81 1015.5
20260508124904 63 32 0.9 0.9 0.00 0.00 0.00 81 1015.2
20260508124401 63 18 2.6 2.6 0.00 0.00 0.00 81 1015.2
20260508123859 63 335 2.6 2.6 0.00 0.00 0.00 81 1015.2
20260508123357 63 8 2.6 2.6 0.00 0.00 0.00 81 1015.2
20260508122853 63 336 1.7 1.7 0.00 0.00 0.00 81 1015.5
20260508122350 63 337 2.6 2.6 0.00 0.00 0.00 81 1015.5
20260508121848 63 36 0.9 0.9 0.00 0.00 0.00 81 1015.5
20260508121346 63 345 1.7 2.6 0.00 0.00 0.00 81 1015.8
20260508120843 63 14 0.9 0.9 0.00 0.00 0.00 81 1016.2
20260508120341 63 301 0.9 0.9 0.00 0.00 0.00 81 1015.8
20260508115838 63 284 0.9 1.7 0.00 0.00 0.00 81 1016.2
20260508115336 63 307 0.9 0.9 0.00 0.00 0.00 81 1016.2
20260508114832 63 336 1.7 1.7 0.00 0.00 0.00 81 1015.8
20260508114329 63 335 2.6 2.6 0.00 0.00 0.00 81 1016.2
20260508113826 63 312 0.9 0.9 0.00 0.00 0.00 81 1016.2
20260508113324 63 330 0.9 0.9 0.00 0.00 0.00 81 1015.8
20260508112820 63 281 0.9 0.9 0.00 0.00 0.00 81 1016.2
20260508112317 63 269 0.0 0.0 0.00 0.00 0.00 81 1016.2
20260508111813 63 299 0.9 0.9 0.00 0.00 0.00 81 1016.2
20260508111311 63 290 0.0 0.0 0.00 0.00 0.00 81 1016.2
20260508110808 63 319 0.9 1.7 0.00 0.00 0.00 81 1015.5
20260508110306 63 286 1.7 1.7 0.00 0.00 0.00 81 1015.8
20260508105805 63 1 1.7 1.7 0.00 0.00 0.00 81 1015.5
20260508105305 63 288 0.0 0.9 0.00 0.00 0.00 81 1015.8
20260508104759 63 7 0.9 0.9 0.00 0.00 0.00 82 1015.8
20260508104256 62 341 1.7 1.7 0.00 0.00 0.00 81 1015.8
20260508103753 62 337 0.9 1.7 0.00 0.00 0.00 82 1015.8
20260508103250 62 295 0.9 0.9 0.00 0.00 0.00 82 1015.8
20260508102747 62 343 1.7 1.7 0.00 0.00 0.00 82 1015.5
20260508102245 62 0 2.6 4.3 0.00 0.00 0.00 83 1015.5
20260508101742 62 357 1.7 1.7 0.00 0.00 0.00 83 1015.8
20260508101240 62 358 1.7 2.6 0.00 0.00 0.00 83 1015.5
20260508100738 62 295 1.7 1.7 0.00 0.00 0.00 83 1015.5
20260508100235 62 1 1.7 1.7 0.00 0.00 0.00 83 1015.8
20260508095731 62 353 2.6 2.6 0.00 0.00 0.00 81 1015.8
20260508095229 63 298 0.9 0.9 0.00 0.00 0.00 79 1015.8
20260508094725 63 10 0.9 0.9 0.00 0.00 0.00 79 1015.8
20260508094222 63 314 0.9 0.9 0.00 0.00 0.00 79 1016.2
20260508093720 63 292 0.9 0.9 0.00 0.00 0.00 79 1016.5
20260508093218 63 333 0.0 0.9 0.00 0.00 0.00 79 1016.2
20260508092714 63 292 0.9 0.9 0.00 0.00 0.00 79 1016.2
20260508092212 63 300 0.9 0.9 0.00 0.00 0.00 79 1016.2
20260508091710 63 304 0.9 0.9 0.00 0.00 0.00 79 1015.8
20260508091207 63 321 0.9 0.9 0.00 0.00 0.00 78 1015.5
20260508090704 63 10 0.0 0.0 0.00 0.00 0.00 78 1015.5
20260508090202 63 286 0.9 0.9 0.00 0.00 0.00 78 1015.5
20260508085657 63 323 0.9 0.9 0.00 0.00 0.00 78 1015.5
20260508085155 63 359 1.7 1.7 0.00 0.00 0.00 78 1015.5
20260508084651 63 310 0.9 1.7 0.00 0.00 0.00 78 1015.8
20260508084148 63 237 0.0 0.0 0.00 0.00 0.00 77 1015.8
20260508083646 63 314 0.9 1.7 0.00 0.00 0.00 77 1015.8
20260508083143 63 333 1.7 1.7 0.00 0.00 0.00 78 1015.8
20260508082638 63 310 0.9 0.9 0.00 0.00 0.00 77 1016.2
20260508082136 63 330 0.9 0.9 0.00 0.00 0.00 77 1016.2
20260508081633 63 337 1.7 1.7 0.00 0.00 0.00 77 1015.8
20260508081129 63 345 0.9 1.7 0.00 0.00 0.00 77 1015.8
20260508080627 63 323 0.0 0.0 0.00 0.00 0.00 77 1016.2
20260508080125 63 336 0.9 1.7 0.00 0.00 0.00 77 1015.8
20260508075621 63 346 1.7 1.7 0.00 0.00 0.00 77 1015.8
20260508075118 63 300 0.9 0.9 0.00 0.00 0.00 77 1015.5
20260508074616 63 320 1.7 1.7 0.00 0.00 0.00 77 1015.8
20260508074113 63 303 0.9 1.7 0.00 0.00 0.00 77 1015.8
20260508073610 63 303 0.9 0.9 0.00 0.00 0.00 77 1015.8
20260508073108 63 300 0.9 0.9 0.00 0.00 0.00 78 1016.2
20260508072603 63 315 0.9 0.9 0.00 0.00 0.00 78 1015.5
20260508072100 63 334 0.9 1.7 0.00 0.00 0.00 78 1015.5
20260508071558 63 342 1.7 1.7 0.00 0.00 0.00 78 1015.5
20260508071056 63 344 1.7 1.7 0.00 0.00 0.00 78 1015.8
20260508070553 63 333 1.7 2.6 0.00 0.00 0.00 78 1015.8
20260508070052 63 43 0.0 0.0 0.00 0.00 0.00 77 1016.2
20260508065549 63 333 1.7 1.7 0.00 0.00 0.00 78 1016.2
20260508065047 63 333 1.7 1.7 0.00 0.00 0.00 78 1016.2
20260508064544 63 341 1.7 1.7 0.00 0.00 0.00 78 1016.2
20260508064042 63 305 1.7 1.7 0.00 0.00 0.00 78 1016.9
20260508063539 63 288 0.9 0.9 0.00 0.00 0.00 77 1016.9
20260508063037 63 326 1.7 1.7 0.00 0.00 0.00 77 1016.9
20260508062534 63 285 0.0 0.0 0.00 0.00 0.00 78 1016.9
20260508062031 63 357 0.0 0.0 0.00 0.00 0.00 78 1016.9
20260508061529 63 307 0.9 0.9 0.00 0.00 0.00 77 1016.9
20260508061025 62 271 0.0 0.0 0.00 0.00 0.00 78 1016.9
20260508060522 62 282 0.0 0.0 0.00 0.00 0.00 78 1016.9
20260508060020 62 292 0.0 0.9 0.00 0.00 0.00 78 1016.5
20260508055515 63 338 0.9 1.7 0.00 0.00 0.00 78 1016.9
20260508055012 63 282 0.0 0.0 0.00 0.00 0.00 78 1017.2
20260508054508 62 271 0.0 0.0 0.00 0.00 0.00 78 1016.9
20260508054006 62 308 0.9 0.9 0.00 0.00 0.00 78 1016.9
20260508053503 62 293 0.9 0.9 0.00 0.00 0.00 78 1016.9
20260508053001 62 332 0.9 0.9 0.00 0.00 0.00 77 1016.5
20260508052458 62 305 0.0 0.9 0.00 0.00 0.00 77 1016.5
20260508051954 62 351 1.7 1.7 0.00 0.00 0.00 77 1016.2
20260508051449 62 331 0.0 0.9 0.00 0.00 0.00 78 1016.2
20260508050946 63 348 1.7 1.7 0.00 0.00 0.00 77 1016.5
20260508050442 63 354 0.0 0.9 0.00 0.00 0.00 77 1017.2
20260508045939 63 239 0.9 0.9 0.00 0.00 0.00 78 1017.2
20260508045437 62 293 0.9 0.9 0.00 0.00 0.00 78 1016.9
20260508044934 63 313 1.7 1.7 0.00 0.00 0.00 77 1016.2
20260508044431 62 44 0.0 0.0 0.00 0.00 0.00 78 1016.2
20260508043926 62 331 0.9 1.7 0.00 0.00 0.00 78 1016.5
20260508043424 62 336 1.7 1.7 0.00 0.00 0.00 77 1016.5
20260508042920 62 331 1.7 1.7 0.00 0.00 0.00 77 1016.5
20260508042418 62 305 0.9 0.9 0.00 0.00 0.00 78 1016.5
20260508041914 62 309 0.0 0.0 0.00 0.00 0.00 78 1016.9
20260508041411 62 297 0.9 0.9 0.00 0.00 0.00 77 1016.9
20260508040908 62 309 0.9 0.9 0.00 0.00 0.00 78 1017.2
20260508040405 62 307 0.0 0.9 0.00 0.00 0.00 77 1017.2
20260508035903 62 290 0.9 0.9 0.00 0.00 0.00 78 1017.2
20260508035400 62 343 0.9 0.9 0.00 0.00 0.00 78 1017.2
20260508034856 62 285 0.0 0.9 0.00 0.00 0.00 78 1017.5
20260508034354 63 296 0.9 0.9 0.00 0.00 0.00 78 1017.5
20260508033850 62 286 0.9 0.9 0.00 0.00 0.00 78 1017.5
20260508033348 62 303 1.7 1.7 0.00 0.00 0.00 78 1017.9
20260508032846 62 272 0.0 0.9 0.00 0.00 0.00 78 1017.5
20260508032343 62 264 0.0 0.0 0.00 0.00 0.00 78 1017.5
20260508031839 62 268 0.0 0.0 0.00 0.00 0.00 78 1017.9
20260508031336 63 272 0.0 0.0 0.00 0.00 0.00 78 1017.5
20260508030833 62 267 0.0 0.0 0.00 0.00 0.00 78 1016.9
20260508030330 63 314 0.9 0.9 0.00 0.00 0.00 77 1016.5
20260508025827 63 267 0.0 0.0 0.00 0.00 0.00 78 1016.9
20260508025324 63 268 0.0 0.0 0.00 0.00 0.00 78 1017.2
20260508024821 63 272 0.0 0.0 0.00 0.00 0.00 78 1016.9
20260508024317 63 268 0.0 0.0 0.00 0.00 0.00 77 1016.5
20260508023814 63 256 0.0 0.0 0.00 0.00 0.00 76 1015.8
20260508023311 63 244 0.0 0.0 0.00 0.00 0.00 76 1015.8
20260508022807 64 336 1.7 1.7 0.00 0.00 0.00 75 1015.8
20260508022306 64 43 0.0 0.9 0.00 0.00 0.00 75 1015.8
20260508021801 64 52 0.9 0.9 0.00 0.00 0.00 75 1015.8
20260508021256 64 343 1.7 1.7 0.00 0.00 0.00 75 1015.5
20260508020752 64 350 1.7 1.7 0.00 0.00 0.00 74 1015.5
20260508020251 64 45 0.0 0.0 0.00 0.00 0.00 75 1015.2
20260508015747 64 89 0.9 0.9 0.00 0.00 0.00 74 1015.2
20260508015244 64 151 0.0 0.0 0.00 0.00 0.00 74 1015.2
20260508014741 64 303 0.9 0.9 0.00 0.00 0.00 74 1015.8
20260508014238 64 282 0.9 0.9 0.00 0.00 0.00 73 1015.5
20260508013734 64 49 0.0 0.0 0.00 0.00 0.00 73 1015.2
20260508013231 64 70 0.9 0.9 0.00 0.00 0.00 73 1015.5
20260508012728 64 7 1.7 1.7 0.00 0.00 0.00 72 1015.8
20260508012225 64 293 0.9 0.9 0.00 0.00 0.00 72 1016.2
20260508011723 64 343 1.7 1.7 0.00 0.00 0.00 72 1015.8
20260508011220 65 44 0.0 0.9 0.00 0.00 0.00 71 1015.5
20260508010716 65 353 0.0 0.9 0.00 0.00 0.00 71 1015.5
20260508010215 65 354 3.5 4.3 0.00 0.00 0.00 70 1015.8
20260508005712 65 65 0.9 1.7 0.00 0.00 0.00 71 1015.2
20260508005208 65 332 0.9 1.7 0.00 0.00 0.00 70 1016.2
20260508004704 65 83 0.0 0.9 0.00 0.00 0.00 70 1015.8
20260508004200 65 271 0.0 0.0 0.00 0.00 0.00 69 1016.2
20260508003657 65 31 0.0 0.0 0.00 0.00 0.00 68 1016.2
20260508003155 66 336 2.6 2.6 0.00 0.00 0.00 68 1016.5
20260508002651 66 80 0.0 0.9 0.00 0.00 0.00 67 1016.5
20260508002149 66 69 0.0 0.9 0.00 0.00 0.00 66 1016.5
20260508001644 66 333 0.9 0.9 0.00 0.00 0.00 67 1016.5
20260508001140 66 51 0.0 0.9 0.00 0.00 0.00 66 1016.5
20260508000636 66 328 2.6 4.3 0.00 0.00 0.00 66 1016.9
20260508000133 66 4 2.6 4.3 0.00 0.00 0.00 67 1016.9
20260507235630 66 330 3.5 4.3 0.00 0.00 0.00 65 1016.9
20260507235128 66 341 1.7 2.6 0.00 0.00 0.00 66 1016.9
20260507234624 66 353 1.7 1.7 0.00 0.00 0.00 66 1016.9
20260507234120 66 51 2.6 2.6 0.00 0.00 0.00 66 1016.9
20260507233617 67 341 4.3 5.2 0.00 0.00 0.00 65 1017.5
20260507233116 68 22 2.6 4.3 0.00 0.00 0.00 65 1017.2
20260507232612 68 344 3.5 5.2 0.00 0.00 0.00 64 1017.2
20260507232109 68 52 0.0 0.0 0.00 0.00 0.00 64 1016.5
20260507231605 67 8 3.5 4.3 0.00 0.00 0.00 64 1016.9
20260507231103 68 344 3.5 4.3 0.00 0.00 0.00 65 1017.2
20260507230559 68 350 3.5 4.3 0.00 0.00 0.00 64 1016.9
20260507230056 68 36 0.9 1.7 0.00 0.00 0.00 65 1016.9
20260507225551 67 86 2.6 4.3 0.00 0.00 0.00 64 1016.9
20260507225048 67 9 4.3 5.2 0.00 0.00 0.00 65 1017.2
20260507224543 67 350 2.6 2.6 0.00 0.00 0.00 64 1017.2
20260507224040 67 340 3.5 6.1 0.00 0.00 0.00 64 1017.2
20260507223536 68 332 3.5 4.3 0.00 0.00 0.00 63 1017.5
20260507223034 68 0 4.3 5.2 0.00 0.00 0.00 63 1017.9
20260507222531 67 347 1.7 1.7 0.00 0.00 0.00 64 1017.9
20260507222027 67 344 2.6 4.3 0.00 0.00 0.00 65 1017.5
20260507221523 67 331 2.6 4.3 0.00 0.00 0.00 65 1017.5
20260507221020 67 354 2.6 4.3 0.00 0.00 0.00 64 1017.5
20260507220518 68 2 4.3 6.1 0.00 0.00 0.00 63 1017.2
20260507220015 67 357 1.7 1.7 0.00 0.00 0.00 65 1017.5
20260507215511 67 4 3.5 4.3 0.00 0.00 0.00 65 1017.5
20260507215009 67 349 2.6 2.6 0.00 0.00 0.00 65 1017.5
20260507214506 67 319 2.6 2.6 0.00 0.00 0.00 65 1017.2
20260507214001 67 310 2.6 2.6 0.00 0.00 0.00 65 1017.2
20260507213458 67 0 4.3 5.2 0.00 0.00 0.00 64 1017.2
20260507212955 67 4 2.6 2.6 0.00 0.00 0.00 65 1017.5
20260507212450 67 330 3.5 4.3 0.00 0.00 0.00 65 1017.9
20260507211948 67 16 0.9 1.7 0.00 0.00 0.00 65 1017.5
20260507211444 68 53 3.5 4.3 0.00 0.00 0.00 64 1017.9
20260507210941 67 14 4.3 6.1 0.00 0.00 0.00 65 1017.2
20260507210438 67 54 3.5 4.3 0.00 0.00 0.00 66 1017.2
20260507205935 66 339 3.5 4.3 0.00 0.00 0.00 66 1017.2